Left ArrowRight Arrow

Hourly Observations for November 23, 2019

Temp ( °F °C ) Dew Point ( °F °C ) Humidity (%) Winds ( mph kmh ) Pressure ( in mb ) Visibility ( mi km ) Precip ( " mm )
12:51 am 00:51 Clear 27 -2.8 25 -3.9 92 92 WNW 6 9 30.39 1029 9 14 0.00 0.00
1:51 am 01:51 Clear 28 -2.2 25 -3.9 88 88 Calm 30.39 1029 10 16 0.00 0.00
2:29 am 02:29 Mostly Cloudy 27 -2.8 24 -4.4 89 89 ESE 3 6 30.51 1033 10 16 0.00 0.00
2:42 am 02:42 Partly Cloudy 27 -2.8 24 -4.4 89 89 Calm 30.51 1033 9 14 0.00 0.00
2:51 am 02:51 Partly Cloudy 27 -2.8 24 -4.4 89 89 Calm 30.38 1029 10 16 0.00 0.00
3:11 am 03:11 Mostly Cloudy 26 -3.3 23 -5 88 88 Calm 30.52 1034 8 13 0.00 0.00
3:16 am 03:16 Mostly Cloudy 25 -3.9 22 -5.6 88 88 Calm 30.53 1034 9 14 0.00 0.00
3:29 am 03:29 Mostly Cloudy 25 -3.9 23 -5 92 92 WSW 3 6 30.52 1034 9 14 0.00 0.00
3:51 am 03:51 Cloudy 25 -3.9 22 -5.6 88 88 Calm 30.39 1029 8 13 0.00 0.00
4:51 am 04:51 Cloudy 26 -3.3 24 -4.4 92 92 Calm 30.38 1029 7 11 0.00 0.00
5:51 am 05:51 Cloudy 29 -1.7 26 -3.3 89 89 Calm 30.37 1029 9 14 0.00 0.00
6:51 am 06:51 Cloudy 29 -1.7 26 -3.3 89 89 NNW 3 6 30.40 1030 7 11 0.00 0.00
7:51 am 07:51 Cloudy 29 -1.7 28 -2.2 96 96 Calm 30.43 1031 7 11 0.00 0.00
8:12 am 08:12 Cloudy with Mist and Fog 29 -1.7 27 -2.8 92 92 Calm 30.53 1034 6 10 0.00 0.00
8:23 am 08:23 Cloudy 30 -1.1 27 -2.8 88 88 WNW 3 6 30.52 1033 7 11 0.00 0.00
8:51 am 08:51 Cloudy with Mist and Fog 30 -1.1 28 -2.2 92 92 Calm 30.46 1031 6 10 0.00 0.00
9:51 am 09:51 Cloudy 32 0 28 -2.2 85 85 Calm 30.47 1032 10 16 0.00 0.00
10:51 am 10:51 Cloudy 35 1.7 29 -1.7 78 78 Calm 30.46 1032 10 16 0.00 0.00
11:51 am 11:51 Cloudy 40 4.4 30 -1.1 68 68 Calm 30.43 1030 10 16 0.00 0.00
12:51 pm 12:51 Mostly Cloudy 42 5.6 29 -1.7 60 60 Calm 30.41 1030 10 16 0.00 0.00
1:51 pm 13:51 Partly Cloudy 44 6.7 28 -2.2 53 53 NNW 3 6 30.39 1029 10 16 0.00 0.00
2:51 pm 14:51 Sunny 44 6.7 27 -2.8 51 51 Calm 30.37 1028 10 16 0.00 0.00
3:51 pm 15:51 Sunny 44 6.7 27 -2.8 51 51 N 3 6 30.37 1028 10 16 0.00 0.00
4:51 pm 16:51 Sunny 40 4.4 27 -2.8 60 60 Calm 30.38 1029 10 16 0.00 0.00
5:51 pm 17:51 Clear 37 2.8 28 -2.2 70 70 W 5 7 30.39 1029 10 16 0.00 0.00
6:51 pm 18:51 Clear 33 0.6 25 -3.9 72 72 ESE 3 6 30.39 1029 10 16 0.00 0.00
7:51 pm 19:51 Clear 32 0 26 -3.3 79 79 Calm 30.39 1029 10 16 0.00 0.00
8:51 pm 20:51 Clear 26 -3.3 23 -5 88 88 Calm 30.40 1029 10 16 0.00 0.00
9:51 pm 21:51 Clear 25 -3.9 22 -5.6 88 88 Calm 30.40 1030 9 14 0.00 0.00
10:51 pm 22:51 Clear 24 -4.4 21 -6.1 88 88 Calm 30.40 1029 10 16 0.00 0.00
11:51 pm 23:51 Clear 26 -3.3 22 -5.6 84 84 Calm 30.37 1028 10 16 0.00 0.00

Powered by Vaisala Xweather